Time,TemperatureF,DewpointF,PressureIn,WindDirection,WindDirectionDegrees,WindSpeedMPH,WindSpeedGustMPH,Humidity,HourlyPrecipIn,Conditions,Clouds,dailyrainin,SoftwareType,DateUTC
2013-08-26 00:01:00,74.8,65.1,30.12,SW,216,11.0,19.0,72,0.00,,,0.00,meteohub,2013-08-26 04:01:00,
2013-08-26 00:02:00,74.8,65.1,30.12,SW,214,13.0,19.0,72,0.00,,,0.00,meteohub,2013-08-26 04:02:00,
2013-08-26 00:06:00,75.0,65.3,30.12,SW,225,9.0,19.0,72,0.00,,,0.00,meteohub,2013-08-26 04:06:00,
2013-08-26 00:11:00,75.0,65.3,30.13,SW,236,14.0,18.0,72,0.00,,,0.00,meteohub,2013-08-26 04:11:00,
2013-08-26 00:16:00,75.0,64.9,30.12,SSW,208,11.0,18.0,71,0.00,,,0.00,meteohub,2013-08-26 04:16:00,
2013-08-26 00:21:00,75.0,64.9,30.12,SSW,202,16.0,20.0,71,0.00,,,0.00,meteohub,2013-08-26 04:21:00,
2013-08-26 00:26:00,75.0,65.3,30.12,SW,221,13.0,22.0,72,0.00,,,0.00,meteohub,2013-08-26 04:26:00,
2013-08-26 00:31:00,74.8,65.1,30.12,SSW,212,17.0,22.0,72,0.00,,,0.00,meteohub,2013-08-26 04:31:00,
2013-08-26 00:36:00,74.7,65.1,30.11,SSW,201,14.0,22.0,72,0.00,,,0.00,meteohub,2013-08-26 04:36:00,
2013-08-26 00:41:00,74.7,65.5,30.11,SSW,207,17.0,21.0,73,0.00,,,0.00,meteohub,2013-08-26 04:41:00,
2013-08-26 00:46:00,74.5,65.3,30.11,South,184,11.0,21.0,73,0.00,,,0.00,meteohub,2013-08-26 04:46:00,
2013-08-26 00:51:00,74.5,65.7,30.11,SW,215,16.0,23.0,74,0.00,,,0.00,meteohub,2013-08-26 04:51:00,
2013-08-26 00:56:00,74.5,65.3,30.11,SSW,203,13.0,23.0,73,0.00,,,0.00,meteohub,2013-08-26 04:56:00,
2013-08-26 01:01:00,74.3,65.5,30.11,SSW,211,13.0,23.0,74,0.00,,,0.00,meteohub,2013-08-26 05:01:00,
2013-08-26 01:07:00,74.5,65.7,30.10,SSW,202,9.0,22.0,74,0.00,,,0.00,meteohub,2013-08-26 05:07:00,
2013-08-26 01:12:00,74.5,65.7,30.10,SW,225,17.0,24.0,74,0.00,,,0.00,meteohub,2013-08-26 05:12:00,
2013-08-26 01:17:00,74.3,65.1,30.10,SSW,209,10.0,24.0,73,0.00,,,0.00,meteohub,2013-08-26 05:17:00,
2013-08-26 01:22:00,74.1,65.3,30.10,SW,216,19.0,24.0,74,0.00,,,0.00,meteohub,2013-08-26 05:22:00,
2013-08-26 01:27:00,74.1,65.3,30.09,SSW,210,11.0,23.0,74,0.00,,,0.00,meteohub,2013-08-26 05:27:00,
2013-08-26 01:32:00,74.1,64.9,30.09,SW,223,11.0,23.0,73,0.00,,,0.00,meteohub,2013-08-26 05:32:00,
2013-08-26 01:37:00,74.1,65.3,30.09,SW,217,17.0,23.0,74,0.00,,,0.00,meteohub,2013-08-26 05:37:00,
2013-08-26 01:42:00,74.1,64.9,30.09,SSW,207,16.0,25.0,73,0.00,,,0.00,meteohub,2013-08-26 05:42:00,
2013-08-26 01:47:00,74.1,64.9,30.09,SSW,213,15.0,28.0,73,0.00,,,0.00,meteohub,2013-08-26 05:47:00,
2013-08-26 01:52:00,74.3,65.1,30.09,SW,235,14.0,28.0,73,0.00,,,0.00,meteohub,2013-08-26 05:52:00,
2013-08-26 01:57:00,74.1,64.9,30.09,SW,231,12.0,26.0,73,0.00,,,0.00,meteohub,2013-08-26 05:57:00,
2013-08-26 02:02:00,74.1,64.9,30.08,SW,226,10.0,26.0,73,0.00,,,0.00,meteohub,2013-08-26 06:02:00,
2013-08-26 02:07:00,74.1,64.9,30.08,SSW,203,20.0,24.0,73,0.00,,,0.00,meteohub,2013-08-26 06:07:00,
2013-08-26 02:12:00,74.1,64.9,30.08,SW,231,18.0,23.0,73,0.00,,,0.00,meteohub,2013-08-26 06:12:00,
2013-08-26 02:17:00,74.1,64.6,30.08,SW,229,12.0,23.0,72,0.00,,,0.00,meteohub,2013-08-26 06:17:00,
2013-08-26 02:22:00,74.1,64.6,30.08,SSW,205,17.0,21.0,72,0.00,,,0.00,meteohub,2013-08-26 06:22:00,
2013-08-26 02:27:00,74.3,65.1,30.08,SW,221,13.0,20.0,73,0.00,,,0.00,meteohub,2013-08-26 06:27:00,
2013-08-26 02:32:00,74.1,64.6,30.08,SW,223,16.0,21.0,72,0.00,,,0.00,meteohub,2013-08-26 06:32:00,
2013-08-26 02:37:00,74.1,64.6,30.08,SW,229,17.0,21.0,72,0.00,,,0.00,meteohub,2013-08-26 06:37:00,
2013-08-26 02:42:00,74.3,64.2,30.08,SW,224,12.0,22.0,71,0.00,,,0.00,meteohub,2013-08-26 06:42:00,
2013-08-26 02:47:00,74.3,64.8,30.07,SW,216,12.0,24.0,72,0.00,,,0.00,meteohub,2013-08-26 06:47:00,
2013-08-26 02:52:00,73.9,64.4,30.07,WSW,242,18.0,24.0,72,0.00,,,0.00,meteohub,2013-08-26 06:52:00,
2013-08-26 02:57:00,73.9,64.8,30.07,SSW,208,16.0,24.0,73,0.00,,,0.00,meteohub,2013-08-26 06:57:00,
2013-08-26 03:02:00,74.1,64.9,30.07,SW,225,14.0,22.0,73,0.00,,,0.00,meteohub,2013-08-26 07:02:00,
2013-08-26 03:07:00,73.9,64.8,30.07,SW,226,14.0,22.0,73,0.00,,,0.00,meteohub,2013-08-26 07:07:00,
2013-08-26 03:12:00,74.1,64.6,30.07,SW,233,16.0,23.0,72,0.00,,,0.00,meteohub,2013-08-26 07:12:00,
2013-08-26 03:17:00,73.9,64.4,30.07,SW,229,16.0,23.0,72,0.00,,,0.00,meteohub,2013-08-26 07:17:00,
2013-08-26 03:22:00,73.8,64.6,30.07,SW,226,14.0,23.0,73,0.00,,,0.00,meteohub,2013-08-26 07:22:00,
2013-08-26 03:27:00,73.9,64.8,30.07,SW,236,12.0,25.0,73,0.00,,,0.00,meteohub,2013-08-26 07:27:00,
2013-08-26 03:32:00,73.8,64.2,30.07,SW,214,14.0,25.0,72,0.00,,,0.00,meteohub,2013-08-26 07:32:00,
2013-08-26 03:37:00,73.8,64.2,30.07,SW,231,14.0,25.0,72,0.00,,,0.00,meteohub,2013-08-26 07:37:00,
2013-08-26 03:42:00,73.8,64.6,30.07,SSW,212,10.0,19.0,73,0.00,,,0.00,meteohub,2013-08-26 07:42:00,
2013-08-26 03:47:00,73.9,64.4,30.07,SSW,209,18.0,24.0,72,0.00,,,0.00,meteohub,2013-08-26 07:47:00,
2013-08-26 03:52:00,74.1,64.6,30.07,SW,221,16.0,24.0,72,0.00,,,0.00,meteohub,2013-08-26 07:52:00,
2013-08-26 03:57:00,74.1,64.6,30.07,SW,222,13.0,24.0,72,0.00,,,0.00,meteohub,2013-08-26 07:57:00,
2013-08-26 04:02:00,74.3,64.8,30.07,SW,228,12.0,23.0,72,0.00,,,0.00,meteohub,2013-08-26 08:02:00,
2013-08-26 04:07:00,74.1,64.6,30.07,SW,220,12.0,23.0,72,0.00,,,0.00,meteohub,2013-08-26 08:07:00,
2013-08-26 04:12:00,74.1,64.6,30.07,SW,229,16.0,20.0,72,0.00,,,0.00,meteohub,2013-08-26 08:12:00,
2013-08-26 04:17:00,74.1,64.9,30.06,SSW,210,15.0,20.0,73,0.00,,,0.00,meteohub,2013-08-26 08:17:00,
2013-08-26 04:22:00,73.9,64.4,30.06,SSW,200,12.0,20.0,72,0.00,,,0.00,meteohub,2013-08-26 08:22:00,
2013-08-26 04:27:00,73.8,64.6,30.06,SSW,211,17.0,20.0,73,0.00,,,0.00,meteohub,2013-08-26 08:27:00,
2013-08-26 04:32:00,73.6,64.4,30.06,South,190,18.0,24.0,73,0.00,,,0.00,meteohub,2013-08-26 08:32:00,
2013-08-26 04:37:00,73.6,64.4,30.06,SW,221,20.0,24.0,73,0.00,,,0.00,meteohub,2013-08-26 08:37:00,
2013-08-26 04:42:00,73.4,64.2,30.06,SW,219,13.0,24.0,73,0.00,,,0.00,meteohub,2013-08-26 08:42:00,
2013-08-26 04:47:00,73.4,64.6,30.06,SSW,209,15.0,22.0,74,0.00,,,0.00,meteohub,2013-08-26 08:47:00,
2013-08-26 04:52:00,73.2,64.4,30.06,SW,217,13.0,23.0,74,0.00,,,0.00,meteohub,2013-08-26 08:52:00,
2013-08-26 04:57:00,73.2,64.0,30.06,SW,221,17.0,23.0,73,0.00,,,0.00,meteohub,2013-08-26 08:57:00,
2013-08-26 05:02:00,73.2,64.4,30.06,SSW,211,17.0,23.0,74,0.00,,,0.00,meteohub,2013-08-26 09:02:00,
2013-08-26 05:07:00,73.2,64.4,30.06,SW,228,13.0,21.0,74,0.00,,,0.00,meteohub,2013-08-26 09:07:00,
2013-08-26 05:12:00,73.4,64.6,30.06,SW,219,12.0,21.0,74,0.00,,,0.00,meteohub,2013-08-26 09:12:00,
2013-08-26 05:17:00,73.4,64.2,30.06,SSW,208,15.0,22.0,73,0.00,,,0.00,meteohub,2013-08-26 09:17:00,
2013-08-26 05:22:00,73.2,64.0,30.06,SW,215,16.0,22.0,73,0.00,,,0.00,meteohub,2013-08-26 09:22:00,
2013-08-26 05:27:00,73.2,64.4,30.06,SW,232,14.0,22.0,74,0.00,,,0.00,meteohub,2013-08-26 09:27:00,
2013-08-26 05:32:00,73.2,64.4,30.06,SW,236,15.0,22.0,74,0.00,,,0.00,meteohub,2013-08-26 09:32:00,
2013-08-26 05:37:00,73.2,64.0,30.06,SW,227,13.0,23.0,73,0.00,,,0.00,meteohub,2013-08-26 09:37:00,
2013-08-26 05:42:00,73.2,64.4,30.07,WSW,243,13.0,23.0,74,0.00,,,0.00,meteohub,2013-08-26 09:42:00,
2013-08-26 05:47:00,73.2,64.0,30.07,SW,224,7.0,23.0,73,0.00,,,0.00,meteohub,2013-08-26 09:47:00,
2013-08-26 05:52:00,73.0,64.2,30.07,SW,220,12.0,20.0,74,0.00,,,0.00,meteohub,2013-08-26 09:52:00,
2013-08-26 05:57:00,72.9,64.0,30.07,SW,223,8.0,18.0,74,0.00,,,0.00,meteohub,2013-08-26 09:57:00,
2013-08-26 06:02:00,72.7,63.9,30.08,SW,217,15.0,17.0,74,0.00,,,0.00,meteohub,2013-08-26 10:02:00,
2013-08-26 06:07:00,72.7,64.2,30.08,SSW,197,15.0,17.0,75,0.00,,,0.00,meteohub,2013-08-26 10:07:00,
2013-08-26 06:12:00,72.7,64.2,30.07,SW,225,14.0,18.0,75,0.00,,,0.00,meteohub,2013-08-26 10:12:00,
2013-08-26 06:17:00,72.7,64.2,30.07,SSW,207,15.0,19.0,75,0.00,,,0.00,meteohub,2013-08-26 10:17:00,
2013-08-26 06:22:00,72.5,64.0,30.07,SSW,209,13.0,21.0,75,0.00,,,0.00,meteohub,2013-08-26 10:22:00,
2013-08-26 06:27:00,72.3,63.9,30.08,SSW,209,13.0,21.0,75,0.00,,,0.00,meteohub,2013-08-26 10:27:00,
2013-08-26 06:32:00,72.3,63.9,30.08,SW,230,10.0,21.0,75,0.00,,,0.00,meteohub,2013-08-26 10:32:00,
2013-08-26 06:37:00,72.3,63.9,30.08,SW,222,14.0,19.0,75,0.00,,,0.00,meteohub,2013-08-26 10:37:00,
2013-08-26 06:42:00,72.3,64.4,30.08,WSW,241,12.0,19.0,76,0.00,,,0.00,meteohub,2013-08-26 10:42:00,
2013-08-26 06:47:00,72.3,64.4,30.08,WSW,242,14.0,19.0,76,0.00,,,0.00,meteohub,2013-08-26 10:47:00,
2013-08-26 06:52:00,72.7,64.2,30.08,SW,233,15.0,19.0,75,0.00,,,0.00,meteohub,2013-08-26 10:52:00,
2013-08-26 06:57:00,72.9,64.4,30.08,SW,234,19.0,23.0,75,0.00,,,0.00,meteohub,2013-08-26 10:57:00,
2013-08-26 07:02:00,72.9,64.4,30.08,WSW,238,13.0,23.0,75,0.00,,,0.00,meteohub,2013-08-26 11:02:00,
2013-08-26 07:07:00,73.0,64.6,30.08,SW,228,17.0,22.0,75,0.00,,,0.00,meteohub,2013-08-26 11:07:00,
2013-08-26 07:12:00,73.0,64.2,30.08,WSW,240,20.0,22.0,74,0.00,,,0.00,meteohub,2013-08-26 11:12:00,
2013-08-26 07:17:00,72.9,64.8,30.08,SW,227,15.0,22.0,76,0.00,,,0.00,meteohub,2013-08-26 11:17:00,
2013-08-26 07:22:00,73.0,64.9,30.08,WSW,239,16.0,22.0,76,0.00,,,0.00,meteohub,2013-08-26 11:22:00,
2013-08-26 07:27:00,73.0,64.6,30.08,SW,236,23.0,26.0,75,0.00,,,0.00,meteohub,2013-08-26 11:27:00,
2013-08-26 07:32:00,73.0,64.6,30.08,SW,228,13.0,26.0,75,0.00,,,0.00,meteohub,2013-08-26 11:32:00,
2013-08-26 07:37:00,73.0,64.6,30.08,SSW,213,11.0,26.0,75,0.00,,,0.00,meteohub,2013-08-26 11:37:00,
2013-08-26 07:42:00,73.0,64.6,30.08,SW,233,18.0,24.0,75,0.00,,,0.00,meteohub,2013-08-26 11:42:00,
2013-08-26 07:47:00,73.2,64.8,30.08,WSW,242,12.0,21.0,75,0.00,,,0.00,meteohub,2013-08-26 11:47:00,
2013-08-26 07:52:00,73.4,64.9,30.08,SW,215,13.0,21.0,75,0.00,,,0.00,meteohub,2013-08-26 11:52:00,
2013-08-26 07:57:00,73.4,64.9,30.08,WSW,238,12.0,22.0,75,0.00,,,0.00,meteohub,2013-08-26 11:57:00,
2013-08-26 08:02:00,73.4,64.9,30.08,SSW,201,14.0,22.0,75,0.00,,,0.00,meteohub,2013-08-26 12:02:00,
2013-08-26 08:08:00,73.6,65.1,30.08,SW,234,16.0,20.0,75,0.00,,,0.00,meteohub,2013-08-26 12:08:00,
2013-08-26 08:13:00,73.6,65.5,30.08,WSW,246,13.0,20.0,76,0.00,,,0.00,meteohub,2013-08-26 12:13:00,
2013-08-26 08:18:00,73.6,65.1,30.08,WSW,238,13.0,20.0,75,0.00,,,0.00,meteohub,2013-08-26 12:18:00,
2013-08-26 08:23:00,73.8,65.3,30.08,SW,222,12.0,22.0,75,0.00,,,0.00,meteohub,2013-08-26 12:23:00,
2013-08-26 08:28:00,73.8,65.7,30.08,WSW,246,14.0,22.0,76,0.00,,,0.00,meteohub,2013-08-26 12:28:00,
2013-08-26 08:33:00,73.4,65.3,30.08,SSW,212,14.0,22.0,76,0.00,,,0.00,meteohub,2013-08-26 12:33:00,
2013-08-26 08:38:00,73.9,65.8,30.08,WSW,252,14.0,22.0,76,0.00,,,0.00,meteohub,2013-08-26 12:38:00,
2013-08-26 08:43:00,73.9,65.8,30.08,SW,234,18.0,27.0,76,0.00,,,0.00,meteohub,2013-08-26 12:43:00,
2013-08-26 08:48:00,73.8,66.0,30.08,SW,214,18.0,27.0,77,0.00,,,0.00,meteohub,2013-08-26 12:48:00,
2013-08-26 08:53:00,73.9,65.8,30.08,SW,226,13.0,27.0,76,0.00,,,0.00,meteohub,2013-08-26 12:53:00,
2013-08-26 08:58:00,73.8,65.7,30.08,SW,234,10.0,22.0,76,0.00,,,0.00,meteohub,2013-08-26 12:58:00,
2013-08-26 09:03:00,73.8,66.0,30.07,SW,234,11.0,22.0,77,0.00,,,0.00,meteohub,2013-08-26 13:03:00,
2013-08-26 09:08:00,73.8,66.0,30.07,WSW,254,15.0,22.0,77,0.00,,,0.00,meteohub,2013-08-26 13:08:00,
2013-08-26 09:13:00,73.8,66.4,30.07,SW,227,14.0,19.0,78,0.00,,,0.00,meteohub,2013-08-26 13:13:00,
2013-08-26 09:19:00,73.9,66.2,30.07,West,264,14.0,19.0,77,0.00,,,0.00,meteohub,2013-08-26 13:19:00,
2013-08-26 09:24:00,73.9,66.6,30.08,WSW,241,12.0,21.0,78,0.00,,,0.00,meteohub,2013-08-26 13:24:00,
2013-08-26 09:29:00,73.9,66.6,30.08,WSW,255,10.0,21.0,78,0.00,,,0.00,meteohub,2013-08-26 13:29:00,
2013-08-26 09:34:00,74.1,66.4,30.07,SW,233,17.0,22.0,77,0.00,,,0.00,meteohub,2013-08-26 13:34:00,
2013-08-26 09:39:00,74.3,66.9,30.07,WSW,244,13.0,22.0,78,0.00,,,0.00,meteohub,2013-08-26 13:39:00,
2013-08-26 09:44:00,74.5,67.1,30.07,SW,224,14.0,22.0,78,0.00,,,0.00,meteohub,2013-08-26 13:44:00,
2013-08-26 09:49:00,74.8,67.1,30.07,WSW,240,16.0,22.0,77,0.00,,,0.00,meteohub,2013-08-26 13:49:00,
2013-08-26 09:54:00,75.0,67.3,30.07,SW,229,17.0,25.0,77,0.00,,,0.00,meteohub,2013-08-26 13:54:00,
2013-08-26 09:59:00,75.0,67.3,30.07,WSW,245,17.0,25.0,77,0.00,,,0.00,meteohub,2013-08-26 13:59:00,
2013-08-26 10:04:00,75.0,67.3,30.07,WSW,244,21.0,25.0,77,0.00,,,0.00,meteohub,2013-08-26 14:04:00,
2013-08-26 10:09:00,75.2,67.5,30.06,SW,226,13.0,23.0,77,0.00,,,0.00,meteohub,2013-08-26 14:09:00,
2013-08-26 10:14:00,75.6,68.2,30.06,WSW,252,16.0,24.0,78,0.00,,,0.00,meteohub,2013-08-26 14:14:00,
2013-08-26 10:19:00,75.6,67.8,30.06,WSW,246,18.0,24.0,77,0.00,,,0.00,meteohub,2013-08-26 14:19:00,
2013-08-26 10:25:00,75.6,68.2,30.07,WSW,245,12.0,22.0,78,0.00,,,0.00,meteohub,2013-08-26 14:25:00,
2013-08-26 10:30:00,75.7,68.4,30.06,WSW,249,11.0,22.0,78,0.00,,,0.00,meteohub,2013-08-26 14:30:00,
2013-08-26 10:35:00,75.9,68.2,30.06,WSW,254,17.0,23.0,77,0.00,,,0.00,meteohub,2013-08-26 14:35:00,
2013-08-26 10:40:00,76.1,68.4,30.06,WSW,254,13.0,23.0,77,0.00,,,0.00,meteohub,2013-08-26 14:40:00,
2013-08-26 10:45:00,76.3,68.5,30.06,WSW,248,17.0,23.0,77,0.00,,,0.00,meteohub,2013-08-26 14:45:00,
2013-08-26 10:50:00,76.5,68.7,30.06,WSW,254,17.0,21.0,77,0.00,,,0.00,meteohub,2013-08-26 14:50:00,
2013-08-26 10:55:00,76.5,68.7,30.06,WSW,253,15.0,21.0,77,0.00,,,0.00,meteohub,2013-08-26 14:55:00,
2013-08-26 11:00:00,76.6,68.9,30.07,WSW,238,12.0,21.0,77,0.00,,,0.00,meteohub,2013-08-26 15:00:00,
2013-08-26 11:05:00,76.6,68.9,30.06,WSW,248,16.0,20.0,77,0.00,,,0.00,meteohub,2013-08-26 15:05:00,
2013-08-26 11:10:00,76.8,68.7,30.06,WSW,246,16.0,20.0,76,0.00,,,0.00,meteohub,2013-08-26 15:10:00,
2013-08-26 11:15:00,77.0,69.3,30.06,WSW,248,12.0,21.0,77,0.00,,,0.00,meteohub,2013-08-26 15:15:00,
2013-08-26 11:20:00,77.2,69.1,30.05,WSW,248,16.0,21.0,76,0.00,,,0.00,meteohub,2013-08-26 15:20:00,
2013-08-26 11:25:00,77.4,68.9,30.05,WSW,253,14.0,21.0,75,0.00,,,0.00,meteohub,2013-08-26 15:25:00,
2013-08-26 11:30:00,77.5,68.9,30.05,WSW,250,15.0,21.0,75,0.00,,,0.00,meteohub,2013-08-26 15:30:00,
2013-08-26 11:35:00,77.7,70.0,30.05,WSW,251,12.0,23.0,77,0.00,,,0.00,meteohub,2013-08-26 15:35:00,
2013-08-26 11:41:00,78.1,69.4,30.05,West,271,20.0,23.0,75,0.00,,,0.00,meteohub,2013-08-26 15:41:00,
2013-08-26 11:46:00,78.1,70.7,30.05,West,259,17.0,21.0,78,0.00,,,0.00,meteohub,2013-08-26 15:46:00,
2013-08-26 11:51:00,78.3,70.0,30.04,West,261,17.0,21.0,76,0.00,,,0.00,meteohub,2013-08-26 15:51:00,
2013-08-26 11:56:00,78.6,70.9,30.04,West,259,14.0,21.0,77,0.00,,,0.00,meteohub,2013-08-26 15:56:00,
2013-08-26 12:01:00,78.6,70.3,30.03,West,262,15.0,20.0,76,0.00,,,0.00,meteohub,2013-08-26 16:01:00,
2013-08-26 12:06:00,78.6,70.0,30.04,WSW,254,16.0,20.0,75,0.00,,,0.00,meteohub,2013-08-26 16:06:00,
2013-08-26 12:11:00,79.0,70.7,30.03,WSW,254,17.0,20.0,76,0.00,,,0.00,meteohub,2013-08-26 16:11:00,
2013-08-26 12:16:00,79.2,70.2,30.03,SW,235,22.0,22.0,74,0.00,,,0.00,meteohub,2013-08-26 16:16:00,
2013-08-26 12:21:00,79.3,70.7,30.02,WSW,248,18.0,24.0,75,0.00,,,0.00,meteohub,2013-08-26 16:21:00,
2013-08-26 12:26:00,79.5,70.2,30.01,West,265,25.0,25.0,73,0.00,,,0.00,meteohub,2013-08-26 16:26:00,
2013-08-26 12:31:00,80.1,70.2,30.01,West,263,17.0,28.0,72,0.00,,,0.00,meteohub,2013-08-26 16:31:00,
2013-08-26 12:36:00,80.1,70.2,30.01,West,261,21.0,28.0,72,0.00,,,0.00,meteohub,2013-08-26 16:36:00,
2013-08-26 12:41:00,80.2,70.9,30.00,West,267,24.0,28.0,73,0.00,,,0.00,meteohub,2013-08-26 16:41:00,
2013-08-26 12:46:00,79.9,71.2,30.00,West,275,21.0,29.0,75,0.00,,,0.00,meteohub,2013-08-26 16:46:00,
2013-08-26 12:51:00,79.0,70.3,30.00,West,265,20.0,29.0,75,0.00,,,0.00,meteohub,2013-08-26 16:51:00,
2013-08-26 12:56:00,78.3,71.6,30.01,West,276,19.0,29.0,80,0.00,,,0.00,meteohub,2013-08-26 16:56:00,
2013-08-26 13:02:00,77.4,71.4,30.01,West,269,20.0,24.0,82,0.00,,,0.00,meteohub,2013-08-26 17:02:00,
2013-08-26 13:07:00,77.4,71.4,30.01,West,267,21.0,26.0,82,0.00,,,0.00,meteohub,2013-08-26 17:07:00,
2013-08-26 13:12:00,77.4,71.1,30.00,WSW,249,15.0,26.0,81,0.00,,,0.00,meteohub,2013-08-26 17:12:00,
2013-08-26 13:17:00,77.5,71.6,30.00,WSW,244,18.0,26.0,82,0.00,,,0.00,meteohub,2013-08-26 17:17:00,
2013-08-26 13:22:00,77.9,71.6,30.00,West,261,16.0,25.0,81,0.00,,,0.00,meteohub,2013-08-26 17:22:00,
2013-08-26 13:27:00,77.5,72.0,30.00,WSW,254,19.0,22.0,83,0.00,,,0.00,meteohub,2013-08-26 17:27:00,
2013-08-26 13:32:00,77.4,71.4,30.00,West,267,18.0,22.0,82,0.00,,,0.00,meteohub,2013-08-26 17:32:00,
2013-08-26 13:37:00,77.5,71.6,29.99,WSW,257,17.0,24.0,82,0.00,,,0.00,meteohub,2013-08-26 17:37:00,
2013-08-26 13:42:00,77.4,71.8,29.99,West,261,22.0,24.0,83,0.00,,,0.00,meteohub,2013-08-26 17:42:00,
2013-08-26 13:47:00,77.2,71.6,29.99,West,262,21.0,23.0,83,0.00,,,0.00,meteohub,2013-08-26 17:47:00,
2013-08-26 13:52:00,76.8,71.6,29.99,West,259,18.0,23.0,84,0.00,,,0.00,meteohub,2013-08-26 17:52:00,
2013-08-26 13:57:00,76.6,71.8,29.99,WSW,258,18.0,23.0,85,0.00,,,0.00,meteohub,2013-08-26 17:57:00,
2013-08-26 14:02:00,76.8,71.2,29.99,West,276,20.0,23.0,83,0.00,,,0.00,meteohub,2013-08-26 18:02:00,
2013-08-26 14:07:00,77.0,71.1,29.99,West,259,14.0,23.0,82,0.00,,,0.00,meteohub,2013-08-26 18:07:00,
2013-08-26 14:12:00,77.4,71.4,29.99,West,264,22.0,24.0,82,0.00,,,0.00,meteohub,2013-08-26 18:12:00,
2013-08-26 14:17:00,77.4,71.4,29.99,WSW,250,14.0,24.0,82,0.00,,,0.00,meteohub,2013-08-26 18:17:00,
2013-08-26 14:22:00,77.4,72.1,29.99,West,260,15.0,25.0,84,0.00,,,0.00,meteohub,2013-08-26 18:22:00,
2013-08-26 14:27:00,77.4,72.1,29.98,WSW,248,15.0,25.0,84,0.00,,,0.00,meteohub,2013-08-26 18:27:00,
2013-08-26 14:32:00,77.4,71.8,29.98,West,259,19.0,25.0,83,0.00,,,0.00,meteohub,2013-08-26 18:32:00,
2013-08-26 14:37:00,77.4,71.8,29.98,West,262,21.0,25.0,83,0.00,,,0.00,meteohub,2013-08-26 18:37:00,
2013-08-26 14:42:00,77.2,72.0,29.98,SW,235,18.0,25.0,84,0.00,,,0.00,meteohub,2013-08-26 18:42:00,
2013-08-26 14:47:00,77.4,71.8,29.97,WSW,251,18.0,23.0,83,0.00,,,0.00,meteohub,2013-08-26 18:47:00,
2013-08-26 14:52:00,77.4,71.8,29.96,WSW,258,21.0,24.0,83,0.00,,,0.00,meteohub,2013-08-26 18:52:00,
2013-08-26 14:57:00,77.4,71.8,29.96,WSW,242,24.0,28.0,83,0.00,,,0.00,meteohub,2013-08-26 18:57:00,
2013-08-26 15:02:00,77.4,71.1,29.95,West,262,22.0,30.0,81,0.00,,,0.00,meteohub,2013-08-26 19:02:00,
2013-08-26 15:07:00,77.5,71.2,29.94,WSW,258,28.0,30.0,81,0.00,,,0.00,meteohub,2013-08-26 19:07:00,
2013-08-26 15:12:00,77.5,70.9,29.94,West,259,25.0,30.0,80,0.00,,,0.00,meteohub,2013-08-26 19:12:00,
2013-08-26 15:17:00,77.7,71.4,29.94,West,259,25.0,32.0,81,0.00,,,0.00,meteohub,2013-08-26 19:17:00,
2013-08-26 15:22:00,77.4,71.1,29.94,West,261,25.0,32.0,81,0.00,,,0.00,meteohub,2013-08-26 19:22:00,
2013-08-26 15:27:00,77.0,71.4,29.94,West,267,23.0,32.0,83,0.00,,,0.00,meteohub,2013-08-26 19:27:00,
2013-08-26 15:32:00,76.6,71.4,29.94,West,264,19.0,30.0,84,0.00,,,0.00,meteohub,2013-08-26 19:32:00,
2013-08-26 15:37:00,76.6,71.4,29.94,West,268,26.0,29.0,84,0.00,,,0.00,meteohub,2013-08-26 19:37:00,
2013-08-26 15:42:00,76.5,71.6,29.94,West,265,20.0,28.0,85,0.00,,,0.00,meteohub,2013-08-26 19:42:00,
2013-08-26 15:47:00,76.6,71.8,29.94,West,263,26.0,27.0,85,0.00,,,0.00,meteohub,2013-08-26 19:47:00,
2013-08-26 15:52:00,76.6,71.4,29.94,West,259,19.0,27.0,84,0.00,,,0.00,meteohub,2013-08-26 19:52:00,
2013-08-26 15:57:00,76.8,71.6,29.94,West,265,20.0,26.0,84,0.00,,,0.00,meteohub,2013-08-26 19:57:00,
2013-08-26 16:02:00,77.0,71.8,29.93,West,271,23.0,26.0,84,0.00,,,0.00,meteohub,2013-08-26 20:02:00,
2013-08-26 16:07:00,77.0,71.4,29.93,West,261,18.0,25.0,83,0.00,,,0.00,meteohub,2013-08-26 20:07:00,
2013-08-26 16:12:00,77.2,71.6,29.93,West,260,16.0,24.0,83,0.00,,,0.00,meteohub,2013-08-26 20:12:00,
2013-08-26 16:17:00,77.5,72.3,29.92,WSW,252,20.0,24.0,84,0.00,,,0.00,meteohub,2013-08-26 20:17:00,
2013-08-26 16:22:00,77.5,71.6,29.93,WSW,255,18.0,24.0,82,0.00,,,0.00,meteohub,2013-08-26 20:22:00,
2013-08-26 16:27:00,77.4,71.4,29.93,West,277,22.0,25.0,82,0.00,,,0.00,meteohub,2013-08-26 20:27:00,
2013-08-26 16:32:00,77.4,71.1,29.92,West,260,21.0,25.0,81,0.00,,,0.00,meteohub,2013-08-26 20:32:00,
2013-08-26 16:37:00,77.5,71.2,29.92,West,263,25.0,25.0,81,0.00,,,0.00,meteohub,2013-08-26 20:37:00,
2013-08-26 16:42:00,77.7,70.7,29.91,West,272,17.0,29.0,79,0.00,,,0.00,meteohub,2013-08-26 20:42:00,
2013-08-26 16:47:00,78.3,70.9,29.92,West,264,23.0,29.0,78,0.00,,,0.00,meteohub,2013-08-26 20:47:00,
2013-08-26 16:52:00,78.3,71.2,29.91,West,273,23.0,29.0,79,0.00,,,0.00,meteohub,2013-08-26 20:52:00,
2013-08-26 16:57:00,78.4,71.1,29.91,West,269,22.0,28.0,78,0.00,,,0.00,meteohub,2013-08-26 20:57:00,
2013-08-26 17:02:00,78.6,71.2,29.91,West,267,25.0,28.0,78,0.00,,,0.00,meteohub,2013-08-26 21:02:00,
2013-08-26 17:07:00,78.3,72.3,29.91,WSW,254,17.0,28.0,82,0.00,,,0.00,meteohub,2013-08-26 21:07:00,
2013-08-26 17:12:00,77.9,72.7,29.91,WSW,248,15.0,28.0,84,0.00,,,0.00,meteohub,2013-08-26 21:12:00,
2013-08-26 17:17:00,77.5,72.3,29.91,West,261,17.0,25.0,84,0.00,,,0.00,meteohub,2013-08-26 21:17:00,
2013-08-26 17:22:00,77.2,72.0,29.91,West,268,17.0,19.0,84,0.00,,,0.00,meteohub,2013-08-26 21:22:00,
2013-08-26 17:27:00,77.4,72.5,29.91,WSW,246,15.0,20.0,85,0.00,,,0.00,meteohub,2013-08-26 21:27:00,
2013-08-26 17:32:00,77.5,72.7,29.91,WSW,254,13.0,20.0,85,0.00,,,0.00,meteohub,2013-08-26 21:32:00,
2013-08-26 17:37:00,77.5,72.7,29.90,WSW,252,16.0,20.0,85,0.00,,,0.00,meteohub,2013-08-26 21:37:00,
2013-08-26 17:42:00,77.4,72.5,29.90,WSW,246,12.0,17.0,85,0.00,,,0.00,meteohub,2013-08-26 21:42:00,
2013-08-26 17:47:00,77.4,72.9,29.90,WSW,243,15.0,18.0,86,0.00,,,0.00,meteohub,2013-08-26 21:47:00,
2013-08-26 17:52:00,77.4,72.1,29.91,WSW,252,14.0,18.0,84,0.00,,,0.00,meteohub,2013-08-26 21:52:00,
2013-08-26 17:57:00,77.4,72.1,29.91,West,273,12.0,18.0,84,0.00,,,0.00,meteohub,2013-08-26 21:57:00,
2013-08-26 18:02:00,77.2,73.0,29.94,North,349,22.0,22.0,87,0.00,,,0.00,meteohub,2013-08-26 22:02:00,
2013-08-26 18:07:00,76.6,72.5,29.94,North,355,20.0,23.0,87,0.00,,,0.00,meteohub,2013-08-26 22:07:00,
2013-08-26 18:12:00,75.7,71.2,29.95,NNW,338,21.0,33.0,86,0.00,,,0.00,meteohub,2013-08-26 22:12:00,
2013-08-26 18:17:00,74.8,70.0,29.95,NW,319,32.0,33.0,85,0.07,,,0.07,meteohub,2013-08-26 22:17:00,
2013-08-26 18:22:00,73.0,70.3,29.99,NW,304,30.0,36.0,91,0.08,,,0.08,meteohub,2013-08-26 22:22:00,
2013-08-26 18:27:00,70.9,70.0,29.98,West,271,26.0,42.0,97,0.12,,,0.12,meteohub,2013-08-26 22:27:00,
2013-08-26 18:32:00,69.8,69.8,29.95,West,262,26.0,42.0,100,0.29,,,0.29,meteohub,2013-08-26 22:32:00,
2013-08-26 18:38:00,69.4,69.4,29.93,WSW,248,19.0,40.0,100,0.38,,,0.38,meteohub,2013-08-26 22:38:00,
2013-08-26 18:43:00,70.0,70.0,29.95,WSW,252,20.0,33.0,100,0.42,,,0.42,meteohub,2013-08-26 22:43:00,
2013-08-26 18:48:00,70.3,70.3,29.96,WSW,250,17.0,33.0,100,0.42,,,0.42,meteohub,2013-08-26 22:48:00,
2013-08-26 18:53:00,70.0,70.0,29.96,WSW,258,14.0,33.0,100,0.42,,,0.42,meteohub,2013-08-26 22:53:00,
2013-08-26 18:58:00,70.0,70.0,29.95,WSW,246,20.0,33.0,100,0.42,,,0.42,meteohub,2013-08-26 22:58:00,
2013-08-26 19:04:00,70.0,70.0,29.95,WSW,238,15.0,23.0,100,0.42,,,0.42,meteohub,2013-08-26 23:04:00,
2013-08-26 19:09:00,70.0,70.0,29.95,SW,233,16.0,23.0,100,0.42,,,0.00,meteohub,2013-08-26 23:09:00,
2013-08-26 19:14:00,70.0,70.0,29.94,SW,214,13.0,20.0,100,0.42,,,0.00,meteohub,2013-08-26 23:14:00,
2013-08-26 19:19:00,70.0,70.0,29.94,SW,221,14.0,19.0,100,0.35,,,0.00,meteohub,2013-08-26 23:19:00,
2013-08-26 19:24:00,70.0,70.0,29.95,SW,235,10.0,19.0,100,0.32,,,0.00,meteohub,2013-08-26 23:24:00,
2013-08-26 19:29:00,70.0,70.0,29.94,SW,234,8.0,16.0,100,0.25,,,0.00,meteohub,2013-08-26 23:29:00,
2013-08-26 19:34:00,70.0,70.0,29.94,SW,225,7.0,16.0,100,0.09,,,0.00,meteohub,2013-08-26 23:34:00,
2013-08-26 19:39:00,70.0,70.0,29.94,SW,219,10.0,14.0,100,0.02,,,0.00,meteohub,2013-08-26 23:39:00,
2013-08-26 19:45:00,70.0,70.0,29.94,SSW,211,11.0,13.0,100,0.00,,,0.00,meteohub,2013-08-26 23:45:00,
2013-08-26 19:50:00,70.0,70.0,29.94,SW,216,10.0,14.0,100,0.00,,,0.00,meteohub,2013-08-26 23:50:00,
2013-08-26 19:55:00,70.0,70.0,29.94,SSW,208,9.0,14.0,100,0.00,,,0.00,meteohub,2013-08-26 23:55:00,
2013-08-26 20:00:00,70.0,70.0,29.94,SSW,202,17.0,17.0,100,0.00,,,0.00,meteohub,2013-08-27 00:00:00,
2013-08-26 20:05:00,70.2,70.2,29.94,South,187,13.0,15.0,100,0.00,,,0.00,meteohub,2013-08-27 00:05:00,
2013-08-26 20:10:00,70.0,70.0,29.94,SSW,200,9.0,17.0,100,0.00,,,0.00,meteohub,2013-08-27 00:10:00,
2013-08-26 20:15:00,70.0,70.0,29.94,South,169,11.0,17.0,100,0.00,,,0.00,meteohub,2013-08-27 00:15:00,
2013-08-26 20:20:00,70.0,70.0,29.94,South,185,13.0,18.0,100,0.00,,,0.00,meteohub,2013-08-27 00:20:00,
2013-08-26 20:25:00,70.2,70.2,29.94,SSW,211,14.0,18.0,100,0.00,,,0.00,meteohub,2013-08-27 00:25:00,
2013-08-26 20:30:00,70.2,70.2,29.94,SW,214,10.0,19.0,100,0.00,,,0.00,meteohub,2013-08-27 00:30:00,
2013-08-26 20:36:00,70.2,70.2,29.93,South,184,6.0,19.0,100,0.00,,,0.00,meteohub,2013-08-27 00:36:00,
2013-08-26 20:41:00,70.2,70.2,29.94,SSW,208,6.0,19.0,100,0.00,,,0.00,meteohub,2013-08-27 00:41:00,
2013-08-26 20:47:00,70.3,70.3,29.93,SSW,199,10.0,17.0,100,0.00,,,0.00,meteohub,2013-08-27 00:47:00,
2013-08-26 20:52:00,70.3,70.3,29.93,SW,222,11.0,18.0,100,0.00,,,0.00,meteohub,2013-08-27 00:52:00,
2013-08-26 20:57:00,70.5,70.5,29.93,SSW,210,16.0,18.0,100,0.00,,,0.00,meteohub,2013-08-27 00:57:00,
2013-08-26 21:02:00,70.7,70.7,29.93,SSW,210,9.0,19.0,100,0.00,,,0.00,meteohub,2013-08-27 01:02:00,
2013-08-26 21:07:00,71.1,71.1,29.93,SSW,211,9.0,19.0,100,0.00,,,0.00,meteohub,2013-08-27 01:07:00,
2013-08-26 21:12:00,71.2,71.2,29.93,SSW,207,14.0,19.0,100,0.00,,,0.00,meteohub,2013-08-27 01:12:00,
2013-08-26 21:17:00,71.6,71.6,29.93,SSW,207,17.0,18.0,100,0.00,,,0.00,meteohub,2013-08-27 01:17:00,
2013-08-26 21:22:00,72.0,72.0,29.94,SSW,196,17.0,18.0,100,0.00,,,0.00,meteohub,2013-08-27 01:22:00,
2013-08-26 21:27:00,72.3,72.3,29.93,SSW,211,17.0,19.0,100,0.00,,,0.00,meteohub,2013-08-27 01:27:00,
2013-08-26 21:32:00,72.7,71.4,29.93,SW,214,12.0,19.0,96,0.00,,,0.00,meteohub,2013-08-27 01:32:00,
2013-08-26 21:37:00,72.9,71.1,29.93,SW,219,16.0,19.0,94,0.00,,,0.00,meteohub,2013-08-27 01:37:00,
2013-08-26 21:42:00,73.0,71.2,29.93,SW,216,12.0,20.0,94,0.00,,,0.00,meteohub,2013-08-27 01:42:00,
2013-08-26 21:47:00,73.2,71.1,29.93,South,180,16.0,20.0,93,0.00,,,0.00,meteohub,2013-08-27 01:47:00,
2013-08-26 21:52:00,73.0,70.5,29.93,SSW,212,12.0,19.0,92,0.00,,,0.00,meteohub,2013-08-27 01:52:00,
2013-08-26 21:57:00,73.0,70.5,29.93,SW,218,9.0,17.0,92,0.00,,,0.00,meteohub,2013-08-27 01:57:00,
2013-08-26 22:02:00,73.0,70.5,29.93,SSW,201,10.0,17.0,92,0.00,,,0.00,meteohub,2013-08-27 02:02:00,
2013-08-26 22:07:00,73.0,70.5,29.92,SSW,202,10.0,15.0,92,0.00,,,0.00,meteohub,2013-08-27 02:07:00,
2013-08-26 22:12:00,73.0,70.5,29.92,SW,214,5.0,15.0,92,0.00,,,0.00,meteohub,2013-08-27 02:12:00,
2013-08-26 22:17:00,73.0,70.5,29.92,South,190,8.0,14.0,92,0.00,,,0.00,meteohub,2013-08-27 02:17:00,
2013-08-26 22:22:00,73.0,70.5,29.92,SW,217,4.0,15.0,92,0.00,,,0.00,meteohub,2013-08-27 02:22:00,
2013-08-26 22:27:00,73.0,70.5,29.92,SSW,207,7.0,15.0,92,0.00,,,0.00,meteohub,2013-08-27 02:27:00,
2013-08-26 22:32:00,73.0,70.5,29.92,SW,220,5.0,15.0,92,0.00,,,0.00,meteohub,2013-08-27 02:32:00,
2013-08-26 22:37:00,73.0,70.5,29.92,SW,219,11.0,13.0,92,0.00,,,0.00,meteohub,2013-08-27 02:37:00,
2013-08-26 22:42:00,73.0,70.5,29.92,SSW,211,7.0,14.0,92,0.00,,,0.00,meteohub,2013-08-27 02:42:00,
2013-08-26 22:47:00,73.0,70.5,29.92,SW,229,6.0,14.0,92,0.00,,,0.00,meteohub,2013-08-27 02:47:00,
2013-08-26 22:52:00,73.0,70.5,29.92,SW,215,5.0,14.0,92,0.00,,,0.00,meteohub,2013-08-27 02:52:00,
2013-08-26 22:57:00,73.0,70.5,29.92,South,191,9.0,12.0,92,0.00,,,0.00,meteohub,2013-08-27 02:57:00,
2013-08-26 23:02:00,72.9,70.7,29.91,SSW,201,9.0,12.0,93,0.00,,,0.00,meteohub,2013-08-27 03:02:00,
2013-08-26 23:07:00,72.9,70.7,29.91,SW,215,11.0,15.0,93,0.00,,,0.00,meteohub,2013-08-27 03:07:00,
2013-08-26 23:12:00,73.0,70.9,29.91,SW,217,6.0,15.0,93,0.00,,,0.00,meteohub,2013-08-27 03:12:00,
2013-08-26 23:18:00,72.9,70.7,29.91,SW,223,4.0,15.0,93,0.00,,,0.00,meteohub,2013-08-27 03:18:00,
2013-08-26 23:23:00,72.9,70.7,29.91,SW,217,7.0,14.0,93,0.00,,,0.00,meteohub,2013-08-27 03:23:00,
2013-08-26 23:28:00,72.9,70.7,29.91,SW,233,13.0,16.0,93,0.00,,,0.00,meteohub,2013-08-27 03:28:00,
2013-08-26 23:33:00,72.9,71.1,29.90,SSW,195,10.0,16.0,94,0.00,,,0.00,meteohub,2013-08-27 03:33:00,
2013-08-26 23:38:00,73.0,70.9,29.90,SSW,197,7.0,16.0,93,0.00,,,0.00,meteohub,2013-08-27 03:38:00,
2013-08-26 23:43:00,73.0,71.2,29.89,SSW,198,11.0,15.0,94,0.00,,,0.00,meteohub,2013-08-27 03:43:00,
2013-08-26 23:48:00,73.0,70.9,29.89,SW,218,14.0,16.0,93,0.00,,,0.00,meteohub,2013-08-27 03:48:00,
2013-08-26 23:54:00,73.2,71.1,29.89,SW,214,9.0,16.0,93,0.00,,,0.00,meteohub,2013-08-27 03:54:00,
2013-08-26 23:59:00,73.2,71.1,29.89,SW,217,5.0,16.0,93,0.00,,,0.00,meteohub,2013-08-27 03:59:00,